SES-15

Last updated on Sun Apr 12 2026 00:02:54 GMT+0000 (Coordinated Universal Time)

1 42709U 17026A 26101.49512395 .00000061 00000+0 00000+0 0 9991 2 42709 0.0286 321.0281 0000668 68.1469 219.6347 1.00270632 6763
UTC large
Height (km)
Speed (km/s)
/
Latitude / Longitude
Inclination (degrees)
Orbital Period (minutes)
Azimuth
Elevation
Range (km)
Doppler Factor

Next 0 passes for location: London (51.5072 / 0.1276)

Sorry there are no passes over London.
SES-15